Miscellaneous Local Product
Issued by NWS North Platte, NE

Home | Current Version | Previous Version | Text Only | Print | Product List | Glossary On
Versions: 1 2 3 4 5 6 7 8 9 10 11 12 13 14 15 16 17 18 19 20 21 22 23 24 25 26 27 28 29 30 31 32 33 34 35 36 37 38 39 40 41 42 43 44 45 46 47 48 49 50
000
AXUS43 KLBF 012110
MISLBF


WESTERN AND NORTH CENTRAL NEBRASKA HOURLY WEATHER ROUNDUP
NATIONAL WEATHER SERVICE NORTH PLATTE NE
400 PM CDT WED APR 01 2015

***STATIONS NOT REPORTING VARIABLES SUCH AS SKY/WEATHER OR
PRESSURE ARE PROVIDED BY THE NEBRASKA DEPARTMENT OF
ROADS...RAWS...AND APRS NETWORKS...AND ARE NOT UNDER
NATIONAL WEATHER SERVICE QUALITY CONTROL***

...OBSERVATIONS IN AND NEAR THE EASTERN PANHANDLE OF NEBRASKA...

CITY           SKY/WX    TMP DP  RH WIND       PRES   REMARKS
PINE RIDGE     MOSUNNY   63  34  33 VRB7G18   29.71S
CHADRON        MOSUNNY   62  35  36 NW26G33   29.73R
ALLIANCE       MOSUNNY   69  36  29 N25G32    29.68F
SIDNEY         PTSUNNY   74  30  19 NW25G32   29.69S
WHITECLAY        N/A     65  37  34 W14         N/A
CRESCENT LAKE    N/A     67  36  32 N13G26      N/A
$$

...OBSERVATIONS IN NORTH CENTRAL NEBRASKA...

CITY           SKY/WX    TMP DP  RH WIND       PRES   REMARKS
VALENTINE      PTSUNNY   67  37  33 N21G28    29.66R
THEDFORD       CLOUDY    68  38  33 N13       29.66R
AINSWORTH      CLOUDY    67  38  33 N15G22    29.65S
O`NEILL        CLOUDY    74  38  28 NW25      29.59R
ORD            PTSUNNY   83  37  19 W14G23    29.53F
BROKEN BOW     PTSUNNY   82  38  20 NW14      29.57S
BROWNLEE         N/A     68  41  37 N15         N/A
SPRINGVIEW       N/A     67  41  39 NW12G18     N/A
BREWSTER         N/A     73  40  30 E20         N/A
ROSE             N/A     72  44  36 W20         N/A
NEWPORT          N/A     69  42  37 NW17        N/A
SARGENT          N/A     80  37  21 NW6G14      N/A
COMSTOCK         N/A     89  37  15 SW7         N/A
EWING            N/A     82  46  27 W12G18      N/A
$$

...OBSERVATIONS IN SOUTHWEST NEBRASKA AND FAR NORTHEAST COLORADO...

CITY           SKY/WX    TMP DP  RH WIND       PRES   REMARKS
WRAY           FAIR      81  25  12 NW8       29.62F
HOLYOKE        FAIR      77  28  16 N18G25    29.64S
IMPERIAL       MOSUNNY   80  26  13 N16       29.62F
OGALLALA       MOSUNNY   77  31  18 N17G23    29.64S
NORTH PLATTE   MOSUNNY   77  30  17 N17G25    29.60R
MCCOOK         PTSUNNY   85  29  13 NW7       29.56F
LEXINGTON      MOSUNNY   83  36  19 S9        29.56F
PAXTON           N/A     75  31  20 NW9         N/A
SUTHERLAND       N/A     80  25  13 E12         N/A
BRADY            N/A     80  33  18 S3          N/A
GOTHENBURG       N/A     84  30  14 W6          N/A
CALLAWAY         N/A     80  37  21 NW17        N/A
$$

...NORTH PLATTE AREA...

CITY           SKY/WX    TMP DP  RH WIND       PRES   REMARKS
AIRPORT        MOSUNNY   77  30  17 N17G25    29.60R
DOWNTOWN         N/A     77  33  20 N9          N/A
$$

...SOME WEATHER OBSERVATIONS FROM AROUND THE REGION...

CITY           SKY/WX    TMP DP  RH WIND       PRES   REMARKS
DENVER         CLOUDY    70  25  18 W9G21     29.72F
LARAMIE        MOSUNNY   50  21  32 NW24G31   29.85S
CHEYENNE       PTSUNNY   60  24  25 NW23G33   29.77F
SCOTTSBLUFF    PTSUNNY   66  18  15 W23G35    29.71R
RAPID CITY     MOSUNNY   54  28  36 NW40G52   29.73R
PIERRE         MOSUNNY   66  29  24 NW26G32   29.63R
WINNER         FAIR      71  36  27 NW24G32   29.62R
SIOUX FALLS    CLOUDY    77  35  21 NW21G41   29.49F
OMAHA          MOSUNNY   84  46  26 S26G36    29.58F
GRAND ISLAND   PTSUNNY   86  42  21 S25G38    29.55F
KANSAS CITY    PTSUNNY   77  54  44 S24G30    29.73F
WICHITA        MOSUNNY   86  54  33 S24G37    29.65F
HAYS           MOSUNNY   84  50  30 S22G29    29.58F
LIBERAL        PTSUNNY   84  32  15 S22G30    29.63F
GOODLAND       MOSUNNY   82  22  11 VRB3      29.60F
$$



USA.gov is the U.S. government's official web portal to all federal, state and local government web resources and services.